Powrót do katalogu

SL-6 R/B

AktywnySSO
NORAD 23753·ROCKET BODY·🇷🇺 Russia

Wystrzelony Dec 28, 1995 z Baikonur Cosmodrome

Loading…

Następne Przeloty (najbliższe 24 godziny)

TLE

ŚwieżeSource: Space-Track

Epoka: Sep 14, 2026, 10:11 UTC

1 23753U 95072C   26257.42473543  .00000038  00000-0  33608-4 0  9992
2 23753  98.6978 327.6095 0003703 173.5151 186.6078 14.27044493598643

Śledź SL-6 R/B w czasie rzeczywistym z AllMySat

Download on the App Store